Other Surface Observations
Issued by NWS Tucson, AZ

Home | Current Version | Previous Version | Text Only | Print | Product List | Glossary On
Versions: 1 2 3 4 5 6 7 8 9 10 11 12 13 14 15 16 17 18 19 20 21 22 23 24 25 26 27 28 29 30 31 32 33 34 35 36 37 38 39 40 41 42 43 44 45 46 47 48 49 50
467
SXUS55 KTWC 272315
OSOTWC

WEATHER ROUNDUP FOR SOUTHEAST ARIZONA
NATIONAL WEATHER SERVICE TUCSON AZ
415 PM MST THU JUL 27 2017

AZZ504>506-514-280015-
LOCATION       SKY/WX    TMP DP  RH WIND       PRES   REMARKS
TUCSON         PTSUNNY   98  59  27 VRB7      29.92F
DAVIS-MONTHAN  CLOUDY   103  58  22 SW9       29.91F HX 102
CHILDRENS PARK N/A      N/A N/A  23 NW2               PIMA CO DEQ
ALVERNON/22ND  N/A       99 N/A N/A NW6               PIMA CO DEQ
CHERRY/GLENN   N/A      N/A N/A N/A N/A               PIMA CO DEQ
TANGERINE      N/A      100 N/A N/A W7                PIMA CO DEQ
CONTL RANCH    N/A      102  53  20 W7                PIMA CO DEQ
GRANT/1ST      N/A      100  55  23 SW8               PIMA CO DEQ
CRAYCROFT/22ND N/A      100  57  24 N/A               PIMA CO DEQ
GOLFLINKS/KOLB N/A      N/A N/A N/A N/A               PIMA CO DEQ
AJO/12TH       N/A      100  57  24 S4                PIMA CO DEQ
FAIRGROUNDS    N/A       95 N/A N/A W3                PIMA CO DEQ
SAGUARO        N/A      102  58  24 S3                *SABINO CYN
SAN CARLOS     N/A       98  58  27 SW8G17            *SAN CARLOS
GREEN VALLEY   N/A       94  57  29 E5                PIMA CO DEQ
HORSE CAMP CYN N/A       92  55  29 W11G18            *ARAVAIPA CYN
RINCON MTNS    NOT AVBL
$$

AZZ509>511-280015-
LOCATION       SKY/WX    TMP DP  RH WIND       PRES   REMARKS
SAFFORD        PTSUNNY   95  57  27 W3        29.92F
STRAY HORSE    N/A       57  53  86 N7G14             *
TRAIL CABIN    N/A       67  55  65 E9G17             *N OF GRANVILLE
BLACK HILLS    NOT AVBL
DRY LAKE       N/A       60  56  87 NE4G11            *NATANES MTNS
NOON CREEK     N/A       91  60  36 N3                *PINALENO MTNS
COLUMBINE      N/A       54  54  100 CALM             *PINALENO MTNS
GUTHRIE        N/A       82  55  40 SW4G15            *SW OF GUTHRIE
$$

AZZ502-503-513-280015-
LOCATION       SKY/WX    TMP DP  RH WIND       PRES   REMARKS
NOGALES        CLOUDY    91  59  33 NW6       30.02F
SELLS          N/A      104  55  20 NE6G12            *
SASABE         N/A       98  57  26 NE3               *ALTAR VLY
HOPKINS        N/A       77  56  49 NW5G11            *SANTA RITA MTNS
CARR CYN       N/A       80  59  49 CALM              *W OF HEREFORD
$$

AZZ507-508-512-280015-
LOCATION       SKY/WX    TMP DP  RH WIND       PRES   REMARKS
SIERRA VISTA   PTSUNNY   84  59  43 N3        30.10F
DOUGLAS        PTSUNNY   84  60  44 N7        30.03F
EMPIRE MTNS    NOT AVBL
MULESHOE RANCH N/A       91  59  34 NW3G10            *PRESERVE
HEADQUARTERS   NOT AVBL
$$

.............................NOTES.............................
THIS IS AN AUTOMATED COLLECTIVE WITH MINIMAL QUALITY CONTROL.
PIMA CO DEQ SITES HAVE NONSTANDARD WIND SENSOR HEIGHTS.
PIMA CO DEQ SITES DO NOT REPORT WIND GUSTS.
* INDICATES WIND SENSORS LOCATED AT 20 FEET INSTEAD OF 33 FEET.
..............................KEY..............................
SKY/WX - SKY CONDITION/WEATHER
TMP    - TEMPERATURE IN FAHRENHEIT
DP     - DEWPOINT IN FAHRENHEIT
RH     - RELATIVE HUMIDITY IN PERCENT
WIND   - DIRECTION AND SPEED IN MILES PER HOUR (MPH)
VRB    - VARIABLE WIND DIRECTION
PRES   - MEAN SEA LEVEL PRESSURE IN INCHES OF MERCURY
         F - FALLING PRESSURE   R - RISING PRESSURE
         S - STEADY PRESSURE
VSB    - VISIBILITY IN MILES
HX     - HEAT INDEX IN FAHRENHEIT
WCI    - WIND CHILL INDEX IN FAHRENHEIT
N/A    - NOT AVAILABLE
AFB    - AIR FORCE BASE
         DAVIS-MONTHAN IS DAVIS-MONTHAN AIR FORCE BASE
CYN    - CANYON
MTNS   - MOUNTAINS
NCA    - NATIONAL CONSERVATION AREA
NR     - NEAR
VLY    - VALLEY
CONTL  - CONTINENTAL
PIMA CO DEQ - PIMA COUNTY DEPT OF ENVIRONMENTAL QUALITY



USA.gov is the U.S. government's official web portal to all federal, state and local government web resources and services.